Theta_e
307 307 306 306 305 304 303 301 300 300 299 298 298 298 297 297 295 294 287 289 287 285 286 284 285 286 286 285 286 285 285 287 287 286 286 286 285 290 292 293 293 292 292 292 292 293 292 292 292 293 293 294 295 296 296 297 297 297 297 298 299 298 298 299 299 298 298 298 298 298 298 298 298 298
308 307 306 305 304 303 302 301 300 298 299 296 296 297 298 298 296 295 294 294 289 287 285 286 284 284 285 285 285 285 285 287 287 286 285 285 285 290 291 292 291 291 292 292 291 291 291 292 292 292 292 294 295 296 296 296 296 296 297 297 297 297 297 297 297 296 296 296 296 296 297 297 297 297
305 304 304 303 302 301 299 298 296 295 296 297 296 297 297 295 297 297 295 293 288 287 285 285 285 284 284 285 284 284 284 286 286 285 284 284 287 289 289 290 290 290 290 291 290 291 291 292 292 292 293 294 294 295 294 293 294 294 294 295 296 296 296 295 294 294 293 294 295 295 296 296 296 297
303 302 301 299 299 298 297 296 295 295 295 296 295 295 295 295 294 295 294 293 293 285 285 286 283 284 284 284 283 283 283 286 286 283 283 285 287 285 286 288 289 289 290 290 290 290 290 291 292 293 293 292 292 292 292 292 293 293 293 293 294 293 293 292 292 292 292 293 293 294 294 294 295 296
298 298 299 299 298 297 296 296 295 294 294 294 294 294 293 293 292 292 292 292 292 283 282 283 283 283 284 283 283 282 283 283 283 284 283 284 283 283 283 284 287 288 288 288 288 289 290 291 292 291 290 290 290 291 291 292 291 291 291 291 291 290 290 291 291 291 292 292 292 293 293 293 294 294
296 295 296 297 297 296 296 295 295 294 293 293 292 292 291 292 292 292 292 292 292 286 282 282 282 282 284 282 283 282 282 282 283 282 282 283 283 283 283 282 284 287 287 287 288 288 290 290 290 289 288 289 289 290 290 290 289 290 289 288 288 288 288 289 290 290 290 291 292 292 292 292 293 293
295 294 294 295 296 294 294 294 294 293 293 292 292 292 291 291 292 291 291 291 289 287 282 282 282 282 282 282 282 283 283 283 282 282 282 282 283 283 282 282 283 286 287 287 288 288 288 288 287 288 288 288 288 289 288 288 288 288 287 287 286 287 287 288 289 289 289 290 291 291 291 291 292 292
294 294 294 294 294 293 293 293 293 292 292 291 291 291 291 290 291 290 290 291 291 287 282 282 281 282 281 282 282 282 282 282 282 282 282 282 282 282 282 282 282 284 286 287 287 287 286 286 286 287 287 287 287 287 287 287 287 286 286 285 285 286 287 287 288 288 288 288 289 290 290 290 290 291
294 294 294 294 294 293 292 292 291 291 290 291 291 291 291 290 290 289 288 289 288 285 283 281 282 281 281 281 281 282 280 280 281 281 281 281 281 281 281 281 282 284 285 286 285 285 285 285 286 286 286 286 286 286 286 286 286 285 284 284 285 286 287 287 287 287 286 287 287 288 288 289 289 289
294 294 294 294 293 292 292 292 291 290 290 290 290 290 290 289 288 287 286 287 286 286 284 281 280 281 280 280 280 281 281 280 280 279 279 279 279 280 279 280 280 280 281 280 282 283 284 284 284 284 285 285 285 285 285 285 284 283 283 283 284 285 286 286 286 286 286 285 285 286 286 287 288 288
293 293 293 293 292 292 292 292 291 290 290 289 289 289 289 288 287 286 286 286 285 285 283 282 281 280 281 280 280 281 283 282 282 281 280 279 279 279 280 279 280 280 280 282 283 283 283 283 282 283 284 284 284 284 284 284 283 282 282 283 284 284 285 285 285 284 284 284 284 284 284 284 286 287
292 292 292 292 292 292 292 292 292 291 290 289 288 288 288 287 286 286 285 285 285 284 282 281 280 281 280 280 280 280 281 281 280 281 280 280 279 278 278 279 279 280 279 278 278 282 282 282 282 283 283 283 283 283 282 282 281 281 282 283 284 284 284 284 283 283 283 283 283 283 283 283 284 285
291 291 291 291 291 290 289 290 290 290 290 289 288 287 287 286 286 286 285 285 284 284 282 281 281 280 280 279 279 279 280 281 281 280 280 280 279 278 278 279 280 279 278 277 277 278 279 278 279 278 278 279 281 279 280 279 280 281 281 283 283 282 282 282 282 282 282 282 282 282 282 282 282 282
290 290 289 290 288 288 287 288 289 290 290 289 289 288 286 286 285 285 284 284 284 283 282 281 280 279 279 279 280 280 281 281 280 279 280 279 278 278 278 278 279 278 277 277 277 278 278 277 277 277 277 277 278 277 276 277 278 279 281 282 281 281 281 281 281 281 281 281 281 281 281 281 281 281
289 289 288 288 287 287 287 287 288 289 289 289 289 288 287 287 286 285 284 284 284 283 282 281 281 280 280 281 282 281 281 281 280 280 279 278 277 277 276 274 278 278 278 277 275 275 277 277 275 275 276 275 275 275 275 278 279 280 281 280 280 280 280 280 280 280 280 280 280 280 280 280 281 281
289 288 288 287 287 287 287 287 286 287 288 288 288 288 287 288 288 288 286 284 283 283 281 281 281 281 281 281 282 281 281 280 280 279 279 278 278 277 276 276 275 278 279 276 275 274 276 276 275 275 274 273 273 274 276 277 279 279 279 279 279 279 279 279 279 279 279 279 279 279 279 280 280 280
288 288 287 286 286 286 286 286 286 286 286 287 287 287 287 287 288 288 289 288 286 285 283 282 282 283 282 281 282 282 281 281 279 278 278 278 278 278 277 276 276 277 278 276 275 273 275 274 274 273 273 272 272 271 273 277 278 278 278 278 278 278 278 278 278 278 278 278 278 278 279 279 279 279
288 287 287 286 285 285 285 285 285 285 285 285 285 285 285 285 286 288 288 288 287 286 285 284 284 285 284 283 282 282 283 280 279 278 278 278 277 277 277 277 276 275 277 276 274 270 271 272 271 271 271 271 270 270 272 276 276 277 276 276 277 277 277 277 277 277 277 277 277 278 278 278 278 278
288 288 287 287 286 285 284 285 285 285 284 284 284 284 285 285 285 285 286 286 286 286 286 286 285 284 284 283 283 282 283 282 281 281 279 279 279 278 277 276 275 274 275 274 273 267 270 270 268 269 269 269 268 268 271 274 275 275 275 275 275 276 276 276 276 276 276 276 277 277 277 277 277 277
287 287 286 286 285 284 284 285 287 286 285 284 284 284 284 283 284 284 285 287 287 285 285 284 284 283 284 284 283 282 282 281 281 280 279 279 277 276 275 273 273 271 273 273 272 267 267 268 267 266 267 268 266 267 266 271 274 274 274 274 274 274 275 275 275 275 275 276 276 276 276 276 277 276
286 286 285 285 284 284 283 285 287 287 286 284 284 283 283 283 283 283 285 287 288 287 287 287 287 287 287 287 287 286 285 283 281 279 277 276 276 275 273 271 270 269 271 271 271 268 263 265 264 262 263 265 265 266 266 265 271 272 272 272 273 273 274 274 274 274 274 275 275 275 276 276 276 274
285 284 284 284 284 283 283 286 287 288 286 284 284 283 283 282 281 282 284 284 285 287 287 287 287 287 287 287 287 286 286 285 282 279 276 276 276 274 273 270 270 269 269 270 271 266 264 262 263 261 261 261 261 265 265 265 266 269 268 270 271 271 272 272 272 273 273 274 274 274 275 275 275 271
283 283 284 284 284 284 284 287 288 288 286 284 284 284 283 282 281 282 283 283 282 283 283 283 284 284 284 284 283 284 285 284 282 280 277 275 275 272 271 269 267 265 268 270 272 264 260 261 262 260 256 255 257 260 262 263 264 265 265 265 265 269 270 270 270 270 272 272 273 273 274 274 273 269
282 282 282 284 285 286 286 287 288 288 287 285 285 284 283 282 281 282 282 282 282 282 281 280 279 278 278 278 277 277 276 276 276 276 276 275 273 271 269 268 266 262 264 270 271 262 256 258 258 259 258 256 255 257 260 262 263 263 264 264 263 266 267 267 266 268 269 270 271 272 272 273 273 269
282 281 281 282 285 286 286 287 288 288 287 286 285 285 284 283 283 283 282 282 282 280 278 277 276 275 275 274 274 274 274 273 273 273 272 270 271 270 267 266 265 261 262 268 271 261 258 254 255 255 256 254 255 256 258 261 261 263 263 263 263 263 263 263 264 263 266 267 268 269 271 272 272 270
281 281 282 282 284 286 286 287 288 288 288 287 285 285 287 286 285 282 282 281 279 278 276 275 274 273 272 272 271 271 270 269 270 269 269 269 266 266 267 267 265 262 262 265 271 260 256 255 255 252 252 253 254 257 256 257 259 259 262 262 263 262 263 262 262 262 262 262 262 265 267 270 270 271
281 282 282 282 284 285 286 287 288 288 288 287 285 287 287 286 285 283 281 279 278 277 276 275 273 272 271 270 269 269 268 267 266 266 265 266 266 265 265 265 265 263 262 260 263 260 254 251 256 255 253 254 253 253 256 254 255 260 260 260 261 262 263 262 261 261 261 261 261 266 266 266 268 269
282 282 282 283 284 286 286 287 288 288 287 285 287 287 287 285 284 281 279 278 277 276 275 274 272 271 271 270 269 268 266 265 264 263 262 262 263 263 263 262 262 261 261 260 260 259 257 254 254 256 256 252 251 252 254 257 258 258 257 260 260 260 261 262 261 261 261 261 261 261 261 261 262 262
282 283 284 284 285 286 286 287 287 287 286 287 287 287 285 283 281 280 278 277 276 275 274 273 272 271 270 270 269 267 264 263 263 261 260 259 259 259 259 259 258 259 260 259 259 258 256 256 254 254 252 253 251 252 255 255 255 255 257 257 255 258 259 260 261 260 260 260 260 260 260 260 260 262
283 284 285 285 285 285 285 285 285 285 285 286 286 285 283 281 280 279 278 277 276 275 274 273 271 270 268 267 266 264 264 263 262 260 258 259 258 259 259 259 257 255 255 257 258 259 258 257 256 253 250 252 253 252 253 252 252 254 256 255 256 258 259 259 259 259 259 259 259 259 260 261 261 261
283 284 284 284 285 285 285 285 285 285 285 285 284 282 281 280 279 279 278 277 276 275 274 272 270 267 265 264 264 263 263 261 258 260 259 258 256 256 256 257 254 255 254 252 255 257 256 256 257 255 251 252 252 253 252 253 252 253 254 256 255 252 255 258 258 259 259 259 259 259 260 260 261 262
283 283 284 284 284 285 284 284 284 284 284 283 280 279 279 278 278 278 278 277 274 274 272 269 266 263 264 263 263 262 261 259 257 258 257 257 255 255 255 254 253 252 253 253 252 253 256 255 255 255 255 253 252 250 251 250 252 253 253 254 255 255 256 255 256 257 259 259 257 257 258 259 260 261
283 283 283 282 283 283 283 282 282 281 279 277 277 276 276 276 276 275 274 273 271 270 267 265 264 264 264 262 261 260 259 257 256 255 256 256 256 251 253 254 252 252 254 253 252 251 251 251 253 255 254 254 256 255 251 251 250 249 250 252 252 253 254 256 256 257 258 257 256 256 257 259 260 261
282 282 281 282 282 282 281 280 278 277 277 275 274 274 275 274 274 273 273 271 269 269 268 267 265 264 262 261 260 260 258 254 254 257 260 252 253 254 253 253 250 250 252 250 249 249 250 251 252 252 250 252 253 255 255 253 253 249 250 250 251 251 254 253 256 257 257 256 256 255 256 257 259 261
281 280 280 281 282 281 280 279 277 277 275 274 273 273 273 273 273 271 270 269 268 268 267 266 265 263 263 261 260 259 258 257 254 254 253 253 253 253 252 251 249 250 250 250 250 249 249 250 251 251 252 253 254 252 257 254 248 252 250 251 252 251 252 254 255 255 256 256 257 256 256 257 257 260
280 280 280 280 280 280 279 278 277 276 275 274 273 272 271 271 270 270 268 268 268 267 266 265 263 262 262 260 259 258 257 256 255 254 253 252 251 249 249 250 251 250 249 248 249 248 248 248 248 250 250 249 249 251 252 262 260 252 254 251 250 250 253 253 254 254 255 254 256 256 255 255 256 259
279 280 280 279 279 278 278 277 276 275 275 274 273 272 272 270 269 269 268 268 267 266 265 264 262 261 260 259 258 257 257 257 254 254 253 250 250 251 251 252 252 250 249 249 248 248 246 247 247 246 246 248 247 248 253 251 257 263 254 251 250 252 254 254 254 253 255 256 256 256 256 256 256 258
279 279 278 278 278 278 277 276 275 274 274 273 272 272 271 269 267 265 266 266 265 264 264 262 260 259 259 258 257 256 255 253 254 254 251 251 252 250 251 251 248 248 247 247 248 248 245 246 246 246 247 248 247 248 247 250 252 255 261 256 253 255 256 255 254 254 255 257 256 257 258 256 257 259
279 278 277 277 277 277 276 275 275 274 273 272 271 270 268 266 264 264 265 264 264 263 261 260 259 258 258 258 257 257 255 254 253 253 252 251 252 251 248 248 247 246 247 248 246 246 246 246 247 247 247 246 247 245 247 248 250 253 256 262 259 256 256 256 255 256 257 256 257 258 258 260 262 265
278 278 277 276 276 276 275 275 274 273 272 271 271 269 266 265 264 264 264 262 262 261 260 259 258 258 256 257 256 255 256 256 255 254 253 252 251 250 249 249 249 247 246 247 248 248 246 248 248 249 248 250 250 249 249 251 251 252 253 255 262 260 258 258 257 257 257 258 258 257 256 258 257 259
277 276 276 276 275 275 274 274 273 272 271 270 268 267 266 265 264 264 263 262 260 260 258 258 258 257 257 256 256 257 255 253 253 251 251 251 251 251 252 253 249 247 248 249 247 247 248 250 251 257 252 248 248 247 248 248 250 251 250 252 258 261 262 263 260 258 257 258 258 257 257 257 257 258
277 276 275 275 275 274 273 272 271 270 269 268 267 265 264 264 264 264 262 261 260 259 258 258 257 257 256 256 255 256 256 254 252 251 251 251 252 252 253 252 249 247 248 250 250 250 250 250 250 248 245 246 248 248 247 248 250 251 251 250 251 257 260 261 263 263 261 259 258 257 257 258 259 258
275 275 274 273 273 272 271 270 269 268 267 266 265 264 264 263 263 262 260 259 259 259 258 257 256 256 255 255 255 256 255 253 252 252 251 251 252 252 251 252 251 250 250 251 250 248 248 249 247 246 244 244 246 247 248 249 248 249 249 250 251 252 252 258 260 262 263 264 264 263 261 260 258 256
274 273 272 271 271 270 269 269 268 267 266 266 264 264 263 263 262 261 260 260 259 259 257 256 256 255 254 254 254 254 254 253 252 252 251 252 252 252 251 251 251 249 249 249 249 250 248 247 246 246 246 246 244 245 249 247 248 249 249 249 250 250 250 251 252 257 258 259 262 264 265 266 266 266
271 270 269 269 269 268 268 267 266 265 265 264 264 264 263 263 261 260 260 260 259 258 257 256 255 255 254 253 254 254 253 254 253 251 251 251 251 251 251 250 250 249 249 248 248 250 248 246 244 245 244 244 244 245 248 248 249 249 249 248 249 249 249 249 250 250 251 251 258 263 264 265 266 266
Wind_Speed
11 12 15 14 13 13 12 10 10 10 9 10 10 9 12 12 13 10 6 9 9 4 11 7 7 9 8 8 7 9 9 9 11 8 7 7 6 9 11 10 7 5 4 5 6 5 4 5 7 9 11 13 13 14 15 15 16 17 18 19 20 20 20 21 21 22 23 23 24 25 26 27 28 28
11 12 12 11 11 10 10 10 10 9 10 9 10 11 10 9 12 11 12 10 7 5 5 8 4 7 9 8 7 7 8 9 12 8 7 7 6 11 11 9 8 7 7 7 5 3 3 5 7 9 11 12 12 13 14 14 15 16 17 17 18 19 19 20 21 21 22 23 24 25 26 26 27 28
9 10 12 10 11 9 10 9 8 8 8 9 9 10 9 9 12 13 10 12 2 4 7 6 3 6 8 7 7 6 6 9 11 8 7 6 9 11 8 10 9 9 9 6 4 3 4 6 8 10 11 11 12 12 12 13 14 15 16 17 18 18 19 19 20 21 22 23 24 25 25 26 27 28
9 10 11 10 10 9 8 8 9 9 9 10 10 10 10 11 11 9 9 12 11 1 1 3 5 7 8 7 8 6 5 7 12 7 7 8 11 7 6 9 11 10 8 6 5 3 3 7 8 9 10 10 10 10 11 12 14 14 15 16 16 17 18 19 20 21 22 22 23 24 25 26 27 27
8 9 9 10 10 8 9 8 8 8 9 9 9 8 8 10 8 9 11 12 11 1 2 1 3 4 7 6 7 8 7 7 6 6 7 8 7 6 5 6 10 9 7 5 3 1 4 6 7 8 7 7 8 10 11 12 12 13 14 14 16 17 19 20 20 21 21 22 23 25 25 26 27 28
7 7 9 10 9 8 10 9 10 9 9 9 10 9 10 10 10 10 10 12 10 5 1 2 3 4 5 5 6 9 10 8 7 7 6 5 6 6 5 6 5 8 6 4 2 1 3 5 5 4 5 7 8 9 10 11 12 12 13 15 17 18 19 19 20 21 22 23 23 24 25 26 27 28
8 8 9 9 8 6 8 8 9 8 10 9 10 11 9 10 11 9 11 9 9 8 4 5 6 6 5 5 7 7 6 7 8 9 7 6 5 5 6 6 5 7 6 4 2 1 2 2 2 3 5 7 8 8 9 10 11 12 14 17 18 18 18 19 20 21 22 22 24 25 26 27 28 28
8 10 9 10 9 8 10 10 9 8 8 8 9 10 9 10 10 9 9 10 8 5 6 5 6 6 6 3 6 6 7 8 7 7 6 6 7 6 5 6 5 4 5 4 2 1 1 2 2 4 6 6 7 8 9 9 11 13 16 17 18 18 18 19 19 20 21 23 24 24 25 26 27 28
9 9 10 10 8 8 10 9 8 7 10 9 9 10 9 9 9 6 7 8 6 6 7 5 2 4 3 3 7 8 9 6 6 5 5 5 5 5 5 4 3 5 4 4 3 3 4 3 4 5 5 6 7 8 8 10 12 14 17 17 17 18 18 19 20 21 22 22 23 24 25 26 28 29
8 9 10 9 8 9 10 10 9 9 10 9 9 10 9 8 6 7 6 6 6 6 7 10 6 4 6 6 4 5 7 11 7 5 6 4 3 4 4 3 2 2 3 3 2 4 4 4 4 4 4 5 7 8 9 11 12 14 16 16 17 18 19 19 20 20 21 21 22 23 24 26 27 29
8 9 9 9 8 9 10 10 10 10 10 9 11 10 10 7 7 7 7 7 8 7 8 5 7 8 5 6 8 3 3 2 6 9 6 4 2 2 3 4 2 2 3 4 6 5 4 3 2 3 4 6 8 10 11 11 12 13 15 17 17 18 18 18 19 20 20 21 22 23 24 25 26 28
8 9 9 9 8 9 9 10 10 9 10 8 9 8 7 8 8 8 8 8 8 8 8 9 9 7 9 4 3 4 5 6 2 2 4 8 7 5 2 2 5 3 4 4 3 3 3 2 2 3 5 6 9 11 10 11 12 14 16 16 16 16 16 18 18 19 20 21 22 23 24 25 26 27
8 8 7 7 7 9 11 13 11 10 10 9 9 7 7 8 8 7 7 8 9 8 9 7 7 9 8 8 10 9 8 9 9 5 5 5 5 5 5 2 3 3 4 3 4 2 2 1 0 1 3 4 7 8 10 8 11 14 15 14 14 15 17 17 18 19 20 21 21 22 23 24 25 26
7 8 7 7 11 11 12 12 13 13 13 13 11 9 9 9 9 9 9 8 8 9 9 10 10 10 10 8 9 11 5 5 8 8 8 9 7 5 4 3 2 3 4 5 4 2 2 2 1 3 3 4 6 5 5 5 9 12 13 13 14 15 16 17 18 19 19 20 21 22 23 24 24 25
7 7 6 6 7 8 9 10 13 13 14 14 13 11 13 12 13 11 10 9 9 9 9 9 9 9 9 9 7 7 8 7 9 8 6 7 7 6 6 4 2 2 5 3 3 0 1 3 1 1 4 4 4 4 5 12 12 10 11 13 13 14 16 17 17 18 19 20 21 22 22 23 24 24
7 7 7 6 5 6 7 7 7 10 12 13 12 11 13 14 15 13 14 12 9 8 9 9 10 10 10 9 8 7 8 8 8 7 6 6 8 8 4 4 5 4 4 4 3 0 1 3 4 4 4 4 3 5 10 12 8 10 11 12 13 14 15 16 17 18 19 20 20 21 22 22 23 24
7 6 6 6 5 5 8 7 6 6 7 10 12 11 13 14 14 11 11 12 13 13 11 11 10 11 11 11 10 10 10 9 10 8 6 5 5 4 6 5 4 3 2 5 3 2 1 2 2 4 3 3 3 5 8 8 7 9 11 12 13 14 14 15 17 18 19 19 20 21 21 22 22 23
7 7 7 7 7 6 5 5 6 6 7 7 7 7 6 6 8 11 12 10 10 10 11 11 11 9 12 12 10 8 11 13 11 9 8 7 7 7 6 4 6 3 1 5 4 1 2 2 3 1 0 3 3 3 5 5 7 9 10 12 13 13 14 15 17 17 18 19 19 20 21 21 22 22
7 7 7 7 7 6 6 6 8 8 8 8 7 7 6 6 6 6 7 7 9 9 9 9 8 8 6 9 11 10 8 9 8 9 9 9 8 7 6 7 6 5 3 3 4 3 2 1 2 1 1 3 2 1 5 4 8 10 10 11 13 13 14 15 17 18 18 18 19 20 20 21 22 23
7 7 7 7 7 6 7 8 14 11 7 8 9 9 7 7 6 5 4 7 7 7 8 9 9 8 9 12 11 10 9 8 9 8 7 7 7 7 6 5 3 3 2 2 4 2 1 1 2 2 1 2 3 2 1 4 10 10 10 11 12 13 13 15 16 17 17 18 19 19 21 21 22 22
6 6 6 6 6 7 7 10 15 15 12 9 11 10 10 8 7 6 7 13 17 16 16 17 17 18 20 20 20 18 17 11 11 9 9 7 7 7 6 4 4 2 2 2 3 3 0 0 2 1 2 1 2 2 2 2 7 10 9 11 12 13 13 15 16 17 17 18 19 20 20 21 22 23
6 6 9 8 8 8 8 12 17 17 14 11 12 12 13 12 10 8 7 7 10 18 20 20 21 20 19 20 20 18 17 17 12 10 10 8 7 7 6 6 3 2 2 1 4 3 1 1 1 0 4 2 1 3 2 2 5 7 6 10 12 12 14 15 15 16 17 18 18 19 20 20 21 13
6 6 8 12 9 8 9 16 18 20 16 11 12 13 13 12 11 9 10 11 12 12 12 12 12 12 13 10 8 10 17 14 8 5 7 7 7 7 6 6 5 2 2 3 3 4 1 3 0 1 2 1 2 1 1 1 1 3 2 5 5 10 12 13 13 14 16 18 18 18 19 20 19 11
6 6 5 8 13 14 15 17 19 20 18 12 11 12 12 13 12 9 9 10 11 10 11 10 10 9 9 9 9 8 8 8 7 7 7 6 7 7 7 7 6 5 3 3 5 4 1 1 1 1 2 2 1 0 1 4 1 1 2 4 3 7 9 10 9 13 15 16 17 17 18 19 18 11
6 5 6 6 12 16 16 17 20 22 21 15 11 11 10 10 12 13 11 13 16 12 12 11 10 9 7 7 7 6 6 6 6 6 6 5 5 7 7 6 5 3 1 3 7 4 3 2 1 1 1 1 1 1 3 2 3 4 1 3 4 4 3 4 5 5 10 15 15 17 17 19 19 14
6 7 6 6 10 16 16 18 20 23 22 19 10 10 14 18 21 12 11 10 10 10 10 10 9 8 8 6 6 6 6 5 6 6 6 5 5 3 3 7 8 5 4 2 4 5 6 1 5 3 1 1 4 2 3 3 3 2 3 2 3 4 4 4 4 5 6 7 6 10 14 18 17 18
6 4 6 6 12 17 17 20 21 23 25 17 11 16 18 20 21 15 10 10 10 10 9 9 9 8 8 8 7 7 6 5 6 6 6 6 6 6 5 6 4 5 4 2 2 5 4 2 3 5 3 2 2 2 2 2 2 0 3 4 5 4 3 4 5 6 7 8 8 15 13 14 15 17
5 6 6 8 15 17 19 21 22 23 22 12 16 18 23 23 17 10 11 10 10 10 9 9 9 8 7 7 7 7 6 6 7 7 7 7 6 7 7 8 8 6 5 4 4 3 4 4 2 2 5 5 3 2 3 2 1 1 4 6 5 3 3 4 5 6 6 7 8 7 6 7 7 8
5 7 11 13 17 18 19 20 22 19 20 19 16 19 23 19 10 11 11 11 10 10 10 9 8 8 7 6 6 6 7 7 7 7 6 6 7 8 9 9 7 6 5 4 4 3 3 5 5 3 2 2 3 2 1 4 1 3 3 5 5 2 5 3 5 6 7 7 7 7 7 8 8 8
11 12 14 16 17 18 17 14 12 11 13 18 19 22 21 11 10 10 11 10 11 10 9 9 9 8 7 8 7 8 8 8 7 7 6 7 6 6 7 7 7 5 5 4 4 4 3 3 3 3 2 1 2 2 3 0 3 1 3 3 5 7 2 2 7 6 6 7 8 8 7 7 8 8
8 9 9 8 11 8 14 12 12 10 13 14 14 12 11 10 10 10 11 12 11 9 9 8 7 7 7 7 8 7 7 7 4 4 7 7 6 6 6 7 5 6 4 4 3 3 2 2 1 1 1 1 0 3 3 1 2 4 5 2 1 3 5 5 5 6 6 7 8 9 8 7 7 7
6 6 6 9 8 8 10 9 8 8 8 8 9 8 7 7 8 9 10 8 6 6 7 8 10 9 8 8 7 6 6 6 4 3 6 6 5 5 6 5 3 1 1 1 1 2 2 1 1 0 1 2 2 1 1 2 3 5 6 3 2 3 3 5 7 7 6 7 8 9 8 6 7 6
6 6 7 7 9 9 9 9 10 9 9 8 9 9 7 8 9 8 8 9 8 8 10 13 13 10 8 7 6 7 7 5 4 3 6 4 8 2 2 4 6 6 6 2 1 2 2 2 1 1 2 3 4 4 2 4 4 4 5 5 3 4 3 3 4 7 9 7 7 7 9 8 5 6
8 8 8 8 9 9 8 9 9 9 10 10 9 8 9 9 8 7 7 7 8 8 9 10 11 10 9 8 7 7 7 5 3 1 5 4 4 5 4 5 2 1 2 2 0 2 4 5 5 4 2 2 4 8 6 5 5 2 3 3 3 4 4 2 5 5 6 6 9 10 9 10 7 6
9 9 9 10 10 9 9 9 10 10 11 11 10 9 8 8 9 8 8 8 8 8 9 9 8 9 10 9 8 8 7 7 5 4 4 6 5 5 6 4 4 2 2 1 0 1 2 5 6 6 6 7 8 3 6 7 2 3 0 2 3 3 4 3 4 6 6 6 5 8 9 8 9 7
7 7 8 8 8 8 8 8 8 9 10 9 10 9 9 8 7 8 8 8 9 9 9 10 9 9 8 8 8 7 7 7 6 5 6 6 6 4 3 2 3 2 2 2 1 1 2 5 5 5 5 6 5 6 4 7 7 4 1 3 4 4 4 4 5 5 6 5 5 6 8 10 10 10
8 8 8 7 6 6 7 7 8 8 8 9 8 9 10 9 7 6 7 7 7 7 8 9 8 8 8 8 8 7 7 7 6 6 6 5 4 5 5 2 3 2 2 0 0 1 2 3 2 4 2 4 3 3 7 4 8 3 8 1 2 3 6 6 6 7 5 5 6 5 7 8 9 10
8 7 6 6 7 7 7 8 8 8 8 7 7 7 7 6 7 7 7 9 9 7 8 8 8 8 8 8 9 7 6 5 6 6 6 6 6 4 5 6 3 2 2 0 1 2 2 3 2 2 2 1 2 4 4 5 4 2 5 5 2 6 6 7 7 7 8 5 6 8 7 7 8 9
8 7 8 7 7 7 8 9 10 10 10 9 8 8 8 8 7 7 7 9 8 8 8 8 8 8 9 8 8 9 8 7 7 6 6 5 6 6 4 4 3 1 2 1 1 1 2 1 2 5 4 3 3 3 1 3 6 6 10 15 7 6 6 5 8 7 7 8 7 6 7 7 10 16
7 6 6 7 7 7 7 7 7 8 9 8 8 8 9 10 9 8 9 8 8 7 8 8 8 8 7 7 7 6 6 8 8 7 7 6 5 4 5 4 5 6 3 2 1 1 1 4 4 6 5 5 4 2 2 5 6 7 9 11 11 5 5 4 7 8 8 8 8 8 10 9 7 6
7 7 6 7 7 7 8 7 7 7 7 7 7 7 7 8 9 9 9 8 8 9 8 8 8 8 8 7 7 8 8 6 6 6 6 6 6 7 6 6 3 4 4 2 3 2 4 5 5 4 3 1 0 0 2 3 7 5 5 6 5 9 12 11 8 7 8 10 8 7 8 9 9 8
8 7 7 7 7 7 7 8 8 8 8 7 8 8 7 7 7 11 9 9 9 8 8 8 7 7 7 7 7 7 8 8 7 6 7 6 6 5 6 5 6 4 5 5 4 5 1 1 1 2 1 1 1 0 4 4 8 8 6 5 6 7 10 13 16 15 10 7 6 7 7 7 6 6
7 7 7 6 7 7 7 8 8 8 9 9 9 8 8 8 8 9 8 8 8 8 8 7 7 7 7 6 6 7 7 7 7 7 6 6 6 7 6 6 6 6 5 3 2 2 0 0 2 3 2 2 2 3 6 6 5 6 8 8 8 7 8 11 13 16 17 17 13 7 5 6 6 7
7 7 6 6 7 7 7 7 8 8 9 8 8 8 9 10 9 8 8 9 8 8 7 7 7 7 7 6 6 6 6 7 7 8 7 7 6 6 5 5 4 4 3 3 1 1 1 0 1 3 1 3 2 2 6 4 6 6 6 7 6 7 9 8 9 10 9 8 8 8 10 11 12 15
6 7 7 6 7 7 7 8 9 9 8 9 9 9 8 8 9 8 7 8 8 8 8 8 7 7 7 7 8 7 5 6 6 5 6 6 6 5 4 5 5 4 4 3 2 1 0 0 1 1 1 1 2 3 4 3 6 6 6 6 10 7 6 6 7 9 9 10 9 9 11 13 14 14
Wind_Direction
235 234 227 228 232 230 226 223 220 219 212 217 216 206 214 218 237 253 236 226 227 200 199 204 214 200 196 195 189 184 192 185 178 173 174 172 161 168 176 180 180 154 126 84 60 38 9 338 317 310 309 308 305 305 308 313 317 319 318 319 323 324 324 325 327 328 327 325 325 324 323 322 321 320
236 235 236 233 238 230 225 224 222 216 214 210 211 215 219 212 227 239 252 262 173 193 210 206 182 188 194 189 187 183 186 174 172 169 166 166 162 164 160 158 130 121 107 83 68 39 344 321 315 312 302 298 304 313 316 320 322 324 327 330 330 329 330 331 331 330 330 329 327 326 323 321 321 319
241 239 237 230 234 220 223 218 214 215 213 219 215 221 211 217 223 234 236 261 222 152 188 215 160 166 188 183 176 175 169 169 167 160 158 153 149 145 143 137 125 110 100 95 79 40 357 323 299 288 295 307 314 318 324 326 329 333 335 335 334 336 335 335 335 334 333 331 328 324 322 321 320 317
236 236 234 228 227 220 220 218 214 213 214 214 215 213 214 220 221 224 235 240 247 86 214 182 155 162 169 167 165 162 145 160 160 152 145 148 144 136 134 124 111 99 94 83 63 29 311 284 283 296 307 312 322 330 331 333 337 339 339 339 339 340 340 339 338 336 333 330 328 326 324 322 320 319
236 236 235 231 228 216 221 218 218 217 216 215 220 216 215 221 211 208 223 232 243 53 325 74 137 148 144 157 164 152 148 146 143 135 145 145 138 134 130 115 102 104 101 90 77 314 282 286 297 303 313 329 336 336 333 340 345 345 345 347 347 346 345 342 339 336 333 330 329 326 324 322 321 319
235 230 234 237 230 217 221 216 220 213 214 212 215 213 211 218 214 207 211 228 234 205 140 114 105 136 166 140 168 162 155 152 143 139 133 126 130 131 122 108 107 110 101 99 95 285 279 290 301 321 344 339 340 340 343 347 350 350 351 353 352 349 345 340 338 335 333 330 327 325 325 324 322 320
232 231 230 234 230 218 224 222 225 214 217 211 213 217 210 218 219 206 208 211 221 193 179 160 157 164 168 159 169 160 152 143 144 139 139 136 126 111 108 108 103 107 108 116 126 259 288 313 356 356 346 342 345 349 350 350 352 354 358 356 351 346 342 339 335 332 330 328 326 327 325 322 321 321
230 232 235 236 226 215 222 225 223 217 214 208 215 218 213 216 220 210 204 210 211 169 149 189 168 162 147 115 142 132 129 137 138 135 126 121 111 104 106 108 103 107 116 126 155 209 153 96 27 360 352 350 352 354 352 353 357 2 0 354 348 342 337 333 332 331 330 329 327 325 324 324 324 324
230 231 232 236 225 218 226 229 224 212 214 214 215 218 213 212 216 200 196 202 180 159 161 136 127 123 70 113 135 142 136 117 99 104 96 91 102 98 88 85 100 118 139 164 156 142 123 67 29 7 353 354 356 355 356 360 4 4 358 348 340 335 333 333 333 331 329 328 328 328 328 328 327 326
231 233 234 232 220 217 218 225 220 214 218 214 215 216 214 210 198 191 187 180 178 165 157 150 137 148 140 130 117 149 145 135 124 94 91 69 60 101 97 84 106 97 146 131 152 136 97 62 29 354 349 356 358 360 1 4 5 2 349 339 335 335 334 333 331 331 332 332 332 332 331 330 328 327
231 233 235 233 221 220 219 223 219 214 216 212 217 213 212 197 183 186 184 176 171 162 145 152 152 141 140 142 133 137 132 101 133 140 129 106 83 61 106 121 142 158 169 169 158 149 135 80 41 352 359 358 1 5 3 7 4 353 341 336 334 333 332 334 335 336 336 336 335 334 332 331 329 328
234 234 233 231 226 222 223 221 224 210 215 208 217 212 198 188 185 187 179 173 171 163 159 156 157 151 141 126 83 111 127 111 57 131 143 150 148 141 104 124 140 162 145 131 130 129 104 86 21 9 0 359 4 7 19 16 1 347 336 333 333 335 337 339 339 339 340 338 336 335 334 333 331 330
236 236 233 232 229 225 226 223 222 215 209 197 209 206 188 187 188 184 181 182 171 167 159 151 150 147 152 158 148 148 165 177 171 156 114 115 116 121 122 143 148 157 145 143 132 145 138 117 22 47 16 360 30 33 28 8 352 339 332 335 341 343 342 341 343 343 341 339 338 336 334 332 331 330
237 236 232 232 229 229 227 225 224 219 212 209 207 193 182 181 184 185 180 183 181 168 167 167 160 160 168 164 164 159 157 102 106 132 135 132 136 122 108 121 164 162 149 150 147 153 145 108 14 50 28 33 48 39 19 344 345 335 337 346 347 345 345 345 345 343 342 340 338 336 334 331 330 330
241 237 232 234 230 229 227 224 222 217 212 211 213 199 191 186 180 179 183 187 181 178 172 159 161 163 157 165 162 153 146 156 153 149 138 122 138 151 143 145 109 190 147 146 125 133 119 114 121 42 67 59 46 22 358 349 341 342 350 349 349 351 350 346 345 345 343 340 339 336 333 331 332 333
239 238 234 228 220 217 218 214 216 217 212 208 205 197 196 198 198 191 180 172 173 176 158 158 166 159 163 154 161 152 148 150 137 137 131 136 139 134 127 137 156 178 142 130 106 8 358 97 95 77 78 59 51 4 357 347 341 355 351 350 353 353 349 346 346 345 343 341 339 335 333 333 334 334
235 232 231 229 217 218 212 207 202 199 202 200 194 193 195 198 196 200 210 195 178 166 161 159 163 167 157 161 176 171 158 143 136 141 133 136 127 119 120 145 141 122 103 108 114 132 12 80 80 88 93 69 26 6 349 333 2 359 357 356 355 351 349 348 347 346 344 342 339 335 335 334 335 335
229 224 222 222 221 209 201 198 194 186 185 178 176 179 183 183 189 190 180 152 142 150 149 151 166 178 168 169 154 149 145 145 150 148 148 145 141 148 153 136 105 61 43 126 125 77 100 54 83 56 26 53 6 1 318 335 10 7 3 1 354 351 350 348 347 347 346 342 339 336 336 336 336 336
226 220 220 217 219 201 196 194 186 184 177 168 165 157 151 141 131 129 134 135 135 140 157 166 151 125 121 128 140 145 148 142 142 148 149 149 142 122 104 88 99 78 29 91 102 162 172 107 73 249 9 347 335 324 313 342 16 14 9 359 353 349 350 349 349 348 345 341 338 336 336 337 336 337
221 219 212 213 210 196 199 195 195 188 165 162 157 151 139 124 113 106 114 116 108 115 111 112 124 133 140 138 137 139 132 123 116 102 98 103 117 125 127 129 118 88 357 46 106 131 180 131 106 287 342 328 293 301 287 3 17 19 10 358 351 349 350 352 350 347 343 339 337 337 337 337 337 340
221 213 205 204 202 192 198 192 192 187 163 163 159 151 142 135 127 117 113 116 120 112 113 121 128 133 136 135 135 136 133 130 131 126 124 145 143 136 141 150 141 157 130 41 95 116 181 74 102 312 279 266 260 217 158 6 9 16 7 354 350 348 351 353 351 343 339 338 338 339 339 338 340 341
218 208 202 198 196 195 196 189 190 178 165 166 163 157 150 146 136 136 133 118 117 120 125 127 128 128 131 134 137 139 141 141 143 146 154 159 140 147 157 159 148 129 124 110 119 89 197 88 84 208 291 6 252 182 180 98 9 11 358 351 352 347 350 352 347 338 336 338 339 341 341 341 343 341
209 208 205 201 194 192 188 189 189 181 176 169 169 163 156 153 149 153 142 130 127 127 121 118 117 118 122 120 124 146 147 143 132 117 123 137 142 153 157 137 112 79 220 164 135 112 262 98 241 120 12 1 283 236 159 70 348 347 344 341 342 341 349 343 339 334 334 338 341 342 343 342 344 338
214 206 203 201 198 196 191 192 191 186 172 172 171 170 166 160 157 148 137 135 129 123 114 111 104 100 97 93 89 80 79 76 83 101 122 133 134 142 158 163 161 162 166 158 145 133 205 113 204 352 173 138 293 284 263 273 183 221 319 335 325 338 342 335 333 331 333 337 340 342 342 343 346 340
210 197 198 200 200 199 194 194 192 189 182 179 174 177 170 160 143 144 139 142 129 117 114 111 111 107 97 95 92 89 88 85 83 84 83 84 117 141 151 151 160 138 204 173 150 101 169 143 169 27 13 85 214 343 269 188 271 172 300 326 327 328 321 313 320 317 331 335 339 341 340 343 347 346
211 202 193 192 196 198 192 195 193 190 184 178 175 174 165 149 149 149 137 129 119 117 120 121 120 121 116 110 108 105 100 89 89 87 84 85 78 73 133 153 150 145 184 249 163 132 117 170 178 131 121 94 283 201 273 275 214 148 331 324 327 309 311 311 314 326 332 322 328 334 338 341 344 346
209 188 187 186 188 192 189 193 194 193 187 178 174 174 159 150 147 140 132 126 124 125 128 130 133 136 133 131 133 129 120 105 92 86 79 76 85 80 69 62 84 118 125 118 70 123 109 156 182 135 186 187 200 271 236 247 296 176 332 333 322 311 296 313 324 333 333 329 322 331 335 332 339 342
190 188 192 188 188 189 190 193 195 191 186 175 175 169 156 151 147 136 130 129 133 135 138 141 145 148 146 134 136 136 128 121 103 78 57 60 76 86 78 72 73 81 87 82 75 86 114 128 146 175 156 169 180 228 261 303 341 345 330 316 300 238 315 320 330 327 326 325 313 321 324 324 324 328
195 197 195 192 192 193 192 194 193 189 186 179 164 160 149 145 146 144 139 139 143 149 158 158 149 148 151 140 125 92 104 110 100 93 74 72 76 81 82 73 66 59 66 59 69 69 105 124 147 157 139 173 151 232 141 247 252 295 332 334 327 317 317 306 336 324 324 322 317 318 317 318 315 322
194 194 196 195 195 194 194 190 184 177 184 174 163 156 148 152 151 142 143 147 155 160 156 156 155 144 127 111 119 119 125 120 124 123 117 109 95 100 103 87 58 43 41 42 60 65 70 98 132 141 118 166 171 186 207 298 296 244 308 301 279 304 202 26 331 330 325 323 320 313 304 305 305 310
190 192 191 192 196 198 195 191 177 169 159 155 152 147 153 157 152 149 158 162 161 154 147 137 122 112 111 108 116 132 126 118 118 120 126 115 127 112 102 106 98 81 27 16 25 48 69 76 83 121 108 297 284 202 213 177 256 296 289 281 311 302 300 325 322 326 320 319 314 306 304 303 303 301
176 172 189 194 195 190 184 173 160 158 152 142 134 135 142 146 131 133 123 95 89 103 116 113 115 106 126 132 129 119 110 115 110 110 116 123 122 132 127 96 131 133 115 347 353 2 42 71 72 12 156 176 232 273 104 153 221 270 280 283 260 284 298 313 321 322 327 320 314 314 308 304 303 298
165 172 184 194 196 192 181 167 163 152 135 127 131 130 137 129 127 133 144 144 140 135 128 133 133 133 131 127 124 121 110 110 105 81 89 86 120 96 92 139 150 152 170 217 296 319 354 359 339 214 206 213 213 196 184 297 285 240 236 273 327 302 305 305 312 316 325 323 309 306 306 308 294 295
177 185 188 196 198 193 179 169 157 154 145 142 140 144 146 135 137 142 135 130 135 140 141 140 139 144 139 140 142 132 126 103 93 122 125 119 126 123 139 139 164 172 155 193 298 320 337 353 350 356 5 287 231 206 184 190 249 242 217 278 283 295 293 307 313 314 318 315 314 315 312 311 314 308
190 193 193 197 196 195 180 170 165 157 152 148 144 146 147 135 140 138 136 140 139 143 141 140 138 143 147 147 146 139 138 134 126 73 66 98 89 116 136 138 157 163 161 157 328 341 28 16 20 10 357 2 0 321 213 172 120 220 69 291 247 276 292 315 318 311 311 305 302 299 298 298 306 316
205 203 200 200 198 189 181 171 158 155 150 149 144 143 135 136 141 149 150 152 150 148 142 140 143 145 140 139 137 132 132 131 133 123 104 105 105 88 92 125 146 153 145 165 187 349 73 44 62 63 38 348 19 345 335 195 181 144 137 273 309 314 300 312 304 299 300 294 286 294 300 310 307 315
200 200 207 202 184 172 172 156 154 151 147 144 150 152 145 150 154 134 127 137 134 134 137 133 137 137 132 131 125 126 135 140 137 131 119 108 103 122 125 125 128 143 149 186 129 43 77 69 64 97 83 20 24 299 265 322 302 255 156 227 305 306 310 313 312 306 287 278 290 288 292 298 298 301
199 191 183 175 172 167 155 153 149 146 143 142 148 135 115 114 114 117 125 134 134 135 134 133 134 131 131 133 130 131 124 118 124 129 135 137 132 149 161 172 171 164 169 82 66 79 80 108 101 139 123 180 295 287 302 312 347 350 101 110 327 308 310 310 308 303 302 288 284 294 294 287 290 292
186 184 183 175 168 157 155 158 155 152 149 144 150 142 132 128 126 128 143 140 136 132 127 129 135 137 135 138 140 145 144 135 133 143 147 162 160 157 164 152 152 180 126 141 27 65 73 138 179 169 156 156 185 216 198 282 274 273 298 303 302 291 296 292 293 298 292 305 299 288 275 274 288 297
182 168 167 162 158 152 146 146 147 148 146 148 147 137 139 144 147 147 147 143 136 128 129 129 130 125 126 138 138 130 132 149 153 155 161 162 167 162 162 171 165 157 132 140 167 259 159 222 200 198 206 206 218 218 205 249 266 288 287 299 302 286 281 287 291 300 297 299 301 306 306 312 307 300
154 160 159 158 153 149 148 146 141 133 133 129 129 126 130 139 148 151 147 140 135 132 129 133 138 140 145 148 151 148 143 137 136 142 148 150 158 158 170 155 142 151 152 201 188 220 233 226 225 226 135 137 20 50 349 329 296 287 297 295 311 313 304 302 301 294 287 298 297 297 298 309 308 309
160 159 152 153 153 149 144 142 136 135 132 137 133 131 129 134 140 136 132 127 123 124 127 136 139 137 142 151 151 146 139 150 152 154 156 152 163 172 174 165 164 165 157 203 198 209 222 82 45 66 65 67 39 134 262 234 273 295 291 299 303 304 311 307 303 298 292 278 278 287 299 293 296 295
152 145 151 147 140 142 141 138 138 134 133 131 130 133 138 141 139 134 129 137 137 135 138 135 139 138 145 151 157 147 136 143 153 155 159 165 167 169 179 188 185 178 185 188 127 140 151 110 80 93 62 106 203 162 243 264 262 286 297 307 307 317 311 312 308 301 298 296 292 275 252 278 318 311
146 142 133 139 136 135 131 134 131 134 134 136 140 148 153 146 145 146 144 145 146 144 141 141 143 143 148 151 144 136 140 146 148 151 165 174 176 174 173 177 170 164 162 179 220 192 152 97 98 133 133 231 177 182 255 282 284 272 280 290 300 318 314 321 318 310 307 298 301 304 305 305 300 297
133 136 136 135 136 135 136 135 137 139 141 143 153 154 148 138 137 140 142 143 139 139 142 144 144 144 146 151 147 148 148 139 143 152 150 153 163 166 161 155 154 157 176 177 157 253 70 50 7 90 132 203 168 203 246 247 269 297 293 303 302 306 306 321 325 329 328 321 309 319 323 322 320 317